Regional Weather Roundup
Issued by NWS

Home | Current Version | Previous Version | Text Only | Print | Product List | Glossary On
Versions: 1 2 3 4 5 6 7 8 9 10 11 12 13 14 15 16 17 18 19 20 21 22 23 24 25 26 27 28 29 30 31 32 33 34 35 36 37 38 39 40 41 42 43 44 45 46 47 48 49 50
000
ASUS45 KREV 272210
RWRNV
NEVADA REGIONAL WEATHER ROUNDUP
NATIONAL WEATHER SERVICE RENO NV
300 PM PDT FRI MAR 27 2015

NOTE: "FAIR" INDICATES FEW OR NO CLOUDS BELOW 12,000 FEET WITH NO
SIGNIFICANT WEATHER AND/OR OBSTRUCTIONS TO VISIBILITY.

NVZ001-003-004-272300-
WESTERN NEVADA

CITY           SKY/WX    TMP DP  RH WIND       PRES   REMARKS
RENO           SUNNY     78  21  12 S15G24    30.15F
CARSON CITY    FAIR      75  19  12 W15G22    30.18F
MINDEN         FAIR      75  27  16 W17G23    30.18
PYRAMID LAKE     N/A     66 N/A N/A N5          N/A
FALLON         SUNNY     78  24  13 VRB6      30.12F
LOVELOCK       SUNNY     77  27  15 VRB6      30.12F
HAWTHORNE      SUNNY     79  27  14 NW12      30.12F
$$

NVZ002-CAZ072-073-272300-
NORTHERN AND CENTRAL SIERRA

CITY           SKY/WX    TMP DP  RH WIND       PRES   REMARKS
S. LAKE TAHOE  SUNNY     68  25  19 SW8G17    30.27F
TRUCKEE        SUNNY     70  25  18 SW17G26   30.27F
SQUAW VLY 8000   N/A     52  27  37 S5          N/A
SUSANVILLE     SUNNY     73  30  20 SW15G29   30.15F
BLUE CANYON    SUNNY     66  28  24 S12G20    30.28F
MAMMOTH LAKES  FAIR      70  19  14 W21G26    30.30F
BRIDGEPORT     FAIR      69  15  12 SW12G17   30.27F
$$

NVZ030-031-036-272300-
NORTHERN NEVADA

CITY           SKY/WX    TMP DP  RH WIND       PRES   REMARKS
ELKO           SUNNY     74  28  18 W15       30.18F
WINNEMUCCA     SUNNY     77  31  18 W12       30.13F
WENDOVER       SUNNY     64  27  24 E5        30.21F
$$

NVZ035-037-272300-
CENTRAL NEVADA

CITY           SKY/WX    TMP DP  RH WIND       PRES   REMARKS
ELY            SUNNY     73  20  13 W12       30.23F
EUREKA           N/A     75  22  13 NW9G16    30.20F
$$

NVZ013-014-272300-
SOUTH CENTRAL NEVADA

CITY           SKY/WX    TMP DP  RH WIND       PRES   REMARKS
TONOPAH        SUNNY     75  21  13 S9G17     30.21F
$$

NVZ017-020-022-272300-
SOUTHERN NEVADA

CITY           SKY/WX    TMP DP  RH WIND       PRES   REMARKS
LAS VEGAS      SUNNY     85  23  10 VRB7      30.04F
N. LAS VEGAS   SUNNY     83  19   9 VRB3      30.08F
NELLIS AFB     SUNNY     85  26  11 W3        30.06F
HENDERSON      SUNNY     84  26  12 VRB3      30.11F
MERCURY        SUNNY     82  22  11 SW12      30.12F
$$


USA.gov is the U.S. government's official web portal to all federal, state and local government web resources and services.